This is the latest recevied weather packets stored in our database for station/object EA1JAV-10. If no packets are shown the sender has not sent any weather packets the latest 10 day(s).
| Time | Temp. | Humidity | Pressure | Rain* | Wind** | Luminosity | Snow |
|---|---|---|---|---|---|---|---|
| 1777726570 | 20° C | 42% | 1001.5 hPa | - | - | - | - |
| 1777724770 | 20.56° C | 42% | 1001.8 hPa | - | - | - | - |
| 1777722970 | 20.56° C | 42% | 1002.1 hPa | - | - | - | - |
| 1777721169 | 20° C | 41% | 1002.3 hPa | - | - | - | - |
| 1777719369 | 20° C | 41% | 1002.2 hPa | - | - | - | - |
| 1777717569 | 20° C | 41% | 1002.1 hPa | - | - | - | - |
| 1777715769 | 21.11° C | 39% | 1002.3 hPa | - | - | - | - |
| 1777713969 | 19.44° C | 42% | 1002.5 hPa | - | - | - | - |
| 1777712169 | 18.89° C | 42% | 1002.5 hPa | - | - | - | - |
| 1777710369 | 18.89° C | 42% | 1002.6 hPa | - | - | - | - |
| 1777708569 | 18.89° C | 42% | 1002.6 hPa | - | - | - | - |
| 1777706769 | 18.89° C | 41% | 1002.8 hPa | - | - | - | - |
| 1777704969 | 18.89° C | 41% | 1002.6 hPa | - | - | - | - |
| 1777703169 | 20.56° C | 40% | 1002.3 hPa | - | - | - | - |
| 1777701369 | 19.44° C | 42% | 1002.4 hPa | - | - | - | - |
| 1777699628 | 19.44° C | 41% | 1002.4 hPa | - | - | - | - |
| 1777699569 | 19.44° C | 41% | 1002.4 hPa | - | - | - | - |
| 1777697768 | 19.44° C | 41% | 1002.3 hPa | - | - | - | - |
| 1777695968 | 19.44° C | 41% | 1002.4 hPa | - | - | - | - |
| 1777694168 | 19.44° C | 41% | 1002.3 hPa | - | - | - | - |
| 1777692368 | 20.56° C | 39% | 1002.5 hPa | - | - | - | - |
| 1777690568 | 20° C | 41% | 1002.5 hPa | - | - | - | - |
| 1777688768 | 20° C | 41% | 1002.7 hPa | - | - | - | - |
| 1777686968 | 20° C | 41% | 1003.1 hPa | - | - | - | - |
| 1777685168 | 20° C | 41% | 1003.4 hPa | - | - | - | - |
* Rain since midnight (hover to see other rain measurements)
** Current wind speed in m/s (hover to see current wind gust speed)